Location: Newark
(40.2531°N, 0.7525°W)
Time: 11:00:09
(UTC+00:00)

Envisat - Visible Passes

Search period start: 20 October 2019 00:00
Search period end: 30 October 2019 00:00
Orbit: 764 x 766 km, 98.1° (Epoch: 20 October)

Date Brightness Start Highest point End Pass type
(mag) Time Alt. Az. Time Alt. Az. Time Alt. Az.
20 Oct 5.4 19:10:31 10° SSW 19:14:32 23° W 19:18:34 10° NW visible
21 Oct 6.3 05:41:37 10° ENE 05:44:13 14° E 05:46:49 10° ESE visible
21 Oct 3.9 18:32:38 10° S 18:37:34 52° W 18:42:32 10° NNW visible
22 Oct 2.9 17:55:46 10° SSE 18:00:48 70° ENE 18:05:52 10° N visible
22 Oct 6.1 19:38:00 10° WSW 19:40:18 13° W 19:42:36 10° WNW visible
23 Oct 5.0 18:58:48 10° SSW 19:03:11 29° W 19:07:37 10° NW visible
24 Oct 6.7 05:31:47 10° ENE 05:32:49 11° E 05:33:51 10° E visible
24 Oct 3.4 18:21:15 10° S 18:26:17 67° WSW 18:31:21 10° NNW visible
25 Oct 3.1 17:44:38 10° SSE 17:49:34 55° ENE 17:54:32 10° N visible
25 Oct 5.8 19:25:42 10° SW 19:28:54 17° W 19:32:08 10° NW visible
26 Oct 6.0 05:54:57 10° NE 05:58:37 20° E 06:02:15 10° SE visible
26 Oct 4.5 18:47:11 10° SSW 18:51:52 37° W 18:56:34 10° NNW visible
27 Oct 3.0 18:09:56 10° SSE 18:15:00 85° WSW 18:20:07 10° NNW visible
28 Oct 3.3 17:33:35 10° SE 17:38:21 43° ENE 17:43:09 10° N visible
28 Oct 5.5 19:13:43 10° SW 19:17:32 21° W 19:21:23 10° NW visible
29 Oct 6.2 05:44:16 10° NE 05:47:14 15° E 05:50:11 10° SE visible
29 Oct 4.0 18:35:40 10° S 18:40:33 48° W 18:45:28 10° NNW visible
